This is the latest recevied weather packets stored in our database for station/object SP3PDK-1. If no packets are shown the sender has not sent any weather packets the latest 10 day(s).
| Time | Temp. | Humidity | Pressure | Rain* | Wind** | Luminosity | Snow |
|---|---|---|---|---|---|---|---|
| 1777805058 | 28.89° C | 20% | 1014 hPa | - | - | - | - |
| 1777804454 | 28.89° C | 20% | 1014.1 hPa | - | - | - | - |
| 1777803858 | 28.89° C | 20% | 1014.1 hPa | - | - | - | - |
| 1777803254 | 28.33° C | 22% | 1014.3 hPa | - | - | - | - |
| 1777802657 | 28.89° C | 22% | 1014.5 hPa | - | - | - | - |
| 1777802058 | 28.33° C | 23% | 1014.5 hPa | - | - | - | - |
| 1777801454 | 27.78° C | 24% | 1014.6 hPa | - | - | - | - |
| 1777800856 | 27.78° C | 25% | 1014.6 hPa | - | - | - | - |
| 1777800254 | 27.78° C | 24% | 1014.7 hPa | - | - | - | - |
| 1777799658 | 27.22° C | 25% | 1014.8 hPa | - | - | - | - |
| 1777799057 | 27.22° C | 26% | 1014.8 hPa | - | - | - | - |
| 1777798453 | 26.67° C | 29% | 1015 hPa | - | - | - | - |
| 1777797858 | 26.11° C | 27% | 1015 hPa | - | - | - | - |
| 1777797254 | 26.11° C | 28% | 1015 hPa | - | - | - | - |
| 1777796658 | 26.11° C | 29% | 1015.2 hPa | - | - | - | - |
| 1777796058 | 25.56° C | 29% | 1015.2 hPa | - | - | - | - |
| 1777795459 | 25.56° C | 30% | 1015.1 hPa | - | - | - | - |
| 1777794255 | 23.89° C | 32% | 1015.3 hPa | - | - | - | - |
| 1777793659 | 24.44° C | 31% | 1015.3 hPa | - | - | - | - |
| 1777793057 | 23.89° C | 32% | 1015.3 hPa | - | - | - | - |
| 1777792458 | 23.33° C | 33% | 1015.5 hPa | - | - | - | - |
| 1777791854 | 22.78° C | 34% | 1015.5 hPa | - | - | - | - |
| 1777791257 | 22.78° C | 35% | 1015.5 hPa | - | - | - | - |
| 1777790658 | 21.67° C | 37% | 1015.6 hPa | - | - | - | - |
| 1777790058 | 21.11° C | 36% | 1015.6 hPa | - | - | - | - |
* Rain since midnight (hover to see other rain measurements)
** Current wind speed in m/s (hover to see current wind gust speed)